Weather History for KGAI - February, 2013

Change the Weather History Date:

Sunday, February 24, 2013

  Actual Average (KCGS) Record (KCGS)
Temperature  
Mean Temperature 39 °F -  
Max Temperature 48 °F 50 °F 74 °F (1985)
Min Temperature 28 °F 31 °F 6 °F (2015)
Degree Days  
Heating Degree Days 26    
Moisture  
Dew Point 28 °F    
Average Humidity 67    
Maximum Humidity 100    
Minimum Humidity 39    
Precipitation  
Precipitation 0.00 in - - ()
Sea Level Pressure  
Sea Level Pressure 29.94 in    
Wind  
Wind Speed 7 mph (NNW)    
Max Wind Speed 23 mph    
Max Gust Speed 31 mph    
Visibility 7 miles    
Events      
Averages and records for this station are not official NWS values.
T = Trace of Precipitation, MM = Missing Value Source: NWS Daily Summary

Daily Weather History Graph

Daily Weather History Graph

Search for Another Location

Airport or City:

Trip Planner

Search our weather history database for the weather conditions in past years. The results will help you decide how hot, cold, wet, or windy it might be!

Date:

Astronomy

Feb. 24, 2013 Rise Set
Actual Time 6:48 AM EST 5:56 PM EST
Civil Twilight 6:21 AM EST 6:23 PM EST
Nautical Twilight 5:50 AM EST 6:54 PM EST
Astronomical Twilight 5:19 AM EST 7:25 PM EST
Moon 5:05 PM EST (2/24) 5:43 AM EST (2/24)
Length of Visible Light 12h 01m
Length of Day
11h 07m
Waxing Gibbous, 99% of the Moon is Illuminated
Feb 24
Waxing Gibbous
Feb 25
Full
Mar 4
Last Quarter
Mar 11
New
Mar 19
First Quarter

Hourly Weather History & Observations

Time (EST) Temp. Windchill Dew Point Humidity Pressure Visibility Wind Dir Wind Speed Gust Speed Precip Events Conditions
12:15 AM 39.2 °F - 37.4 °F 93% 29.84 in 1.2 mi Calm Calm - N/A   Overcast
12:35 AM 39.2 °F 37.0 °F 37.4 °F 93% 29.85 in 2.0 mi North 3.5 mph - N/A   Overcast
12:55 AM 39.2 °F 35.9 °F 37.4 °F 93% 29.86 in 0.8 mi NW 4.6 mph - N/A   Overcast
1:15 AM 39.2 °F - 37.4 °F 93% 29.86 in 1.0 mi Calm Calm - N/A   Overcast
1:35 AM 39.2 °F - 37.4 °F 93% 29.86 in 2.5 mi Calm Calm - N/A   Overcast
1:55 AM 39.2 °F 35.9 °F 37.4 °F 93% 29.86 in 3.0 mi NNW 4.6 mph - N/A   Overcast
2:15 AM 39.2 °F 37.0 °F 37.4 °F 93% 29.85 in 2.0 mi North 3.5 mph - N/A   Overcast
2:35 AM 39.2 °F - 37.4 °F 93% 29.85 in 2.0 mi Calm Calm - N/A   Overcast
2:55 AM 39.2 °F 35.9 °F 37.4 °F 93% 29.84 in 2.5 mi NNW 4.6 mph - N/A   Overcast
3:15 AM 39.2 °F 37.0 °F 37.4 °F 93% 29.83 in 2.5 mi NNW 3.5 mph - N/A   Overcast
3:35 AM 39.2 °F 37.0 °F 37.4 °F 93% 29.82 in 1.5 mi North 3.5 mph - N/A   Overcast
3:55 AM 39.2 °F - 37.4 °F 93% 29.82 in 0.8 mi Calm Calm - N/A   Overcast
4:15 AM 39.2 °F - 37.4 °F 93% 29.82 in 0.8 mi Calm Calm - N/A   Overcast
4:35 AM 39.2 °F 37.0 °F 37.4 °F 93% 29.83 in 0.5 mi NNW 3.5 mph - N/A   Overcast
4:55 AM 39.2 °F 37.0 °F 37.4 °F 93% 29.84 in 0.5 mi NNW 3.5 mph - N/A   Overcast
5:15 AM 39.2 °F 37.0 °F 37.4 °F 93% 29.84 in 0.8 mi NNW 3.5 mph - N/A   Overcast
5:35 AM 39.2 °F 33.6 °F 37.4 °F 93% 29.85 in 0.8 mi NW 8.1 mph - N/A   Overcast
5:55 AM 39.2 °F 35.9 °F 37.4 °F 93% 29.85 in 0.5 mi NNW 4.6 mph - N/A   Overcast
6:15 AM 39.2 °F 33.0 °F 37.4 °F 93% 29.85 in 1.5 mi NNW 9.2 mph - N/A   Overcast
6:35 AM 39.2 °F 35.9 °F 37.4 °F 93% 29.86 in 4.0 mi NNW 4.6 mph - N/A   Overcast
6:55 AM 37.4 °F 34.9 °F 35.6 °F 93% 29.86 in 2.0 mi North 3.5 mph - N/A   Mostly Cloudy
7:15 AM 37.4 °F 34.9 °F 35.6 °F 93% 29.87 in 3.0 mi NNW 3.5 mph - N/A   Clear
7:35 AM 35.6 °F - 35.6 °F 100% 29.87 in 1.2 mi Calm Calm - N/A   Clear
7:55 AM 37.4 °F 34.9 °F 35.6 °F 93% 29.87 in 2.5 mi NW 3.5 mph - N/A   Clear
8:15 AM 39.2 °F - 37.4 °F 93% 29.87 in 3.0 mi Calm Calm - N/A   Clear
8:35 AM 39.2 °F 35.0 °F 37.4 °F 93% 29.88 in 5.0 mi NW 5.8 mph - N/A   Clear
8:55 AM 42.8 °F 36.2 °F 37.4 °F 81% 29.89 in 10.0 mi NW 12.7 mph 17.3 mph N/A   Clear
9:15 AM 42.8 °F 37.0 °F 32.0 °F 66% 29.89 in 10.0 mi NNW 10.4 mph 20.7 mph N/A   Clear
9:35 AM 44.6 °F 38.1 °F 32.0 °F 61% 29.89 in 10.0 mi NNW 13.8 mph 25.3 mph N/A   Clear
9:55 AM 44.6 °F 36.6 °F 30.2 °F 57% 29.90 in 10.0 mi NNW 19.6 mph 25.3 mph N/A   Partly Cloudy
10:15 AM 44.6 °F 35.9 °F 30.2 °F 57% 29.90 in 10.0 mi NW 23.0 mph 31.1 mph N/A   Clear
10:35 AM 44.6 °F 36.4 °F 28.4 °F 53% 29.91 in 10.0 mi NW 20.7 mph 28.8 mph N/A   Clear
10:55 AM 44.6 °F 38.1 °F 28.4 °F 53% 29.91 in 10.0 mi NNW 13.8 mph 29.9 mph N/A   Clear
11:15 AM 44.6 °F 37.4 °F 28.4 °F 53% 29.92 in 10.0 mi NW 16.1 mph 24.2 mph N/A   Scattered Clouds
11:35 AM 46.4 °F 40.7 °F 28.4 °F 50% 29.92 in 10.0 mi NW 12.7 mph 23.0 mph N/A   Partly Cloudy
11:55 AM 44.6 °F 39.7 °F 26.6 °F 49% 29.92 in 10.0 mi North 9.2 mph 21.9 mph N/A   Partly Cloudy
12:15 PM 46.4 °F 41.1 °F 26.6 °F 46% 29.91 in 10.0 mi NNW 11.5 mph 19.6 mph N/A   Partly Cloudy
12:35 PM 46.4 °F 39.5 °F 26.6 °F 46% 29.90 in 10.0 mi NNW 17.3 mph 24.2 mph N/A   Clear
12:55 PM 46.4 °F 40.1 °F 28.4 °F 50% 29.90 in 10.0 mi WNW 15.0 mph 24.2 mph N/A   Clear
1:15 PM 46.4 °F 40.1 °F 26.6 °F 46% 29.90 in 10.0 mi NW 15.0 mph 23.0 mph N/A   Partly Cloudy
1:35 PM 48.2 °F - 24.8 °F 40% 29.89 in 10.0 mi NW 16.1 mph 23.0 mph N/A   Scattered Clouds
1:55 PM 46.4 °F 40.4 °F 24.8 °F 43% 29.89 in 10.0 mi NW 13.8 mph 21.9 mph N/A   Mostly Cloudy
2:15 PM 46.4 °F 39.0 °F 24.8 °F 43% 29.89 in 10.0 mi NW 19.6 mph 26.5 mph N/A   Mostly Cloudy
2:35 PM 48.2 °F - 24.8 °F 40% 29.89 in 10.0 mi NNW 11.5 mph 17.3 mph N/A   Mostly Cloudy
2:55 PM 46.4 °F 41.9 °F 23.0 °F 40% 29.89 in 10.0 mi North 9.2 mph 19.6 mph N/A   Scattered Clouds
3:15 PM 46.4 °F 41.5 °F 24.8 °F 43% 29.90 in 10.0 mi NNW 10.4 mph 23.0 mph N/A   Partly Cloudy
3:35 PM 46.4 °F 41.5 °F 23.0 °F 40% 29.91 in 10.0 mi NNW 10.4 mph 26.5 mph N/A   Clear
3:55 PM 44.6 °F 38.1 °F 21.2 °F 39% 29.92 in 10.0 mi NNW 13.8 mph 24.2 mph N/A   Clear
4:15 PM 44.6 °F 39.2 °F 21.2 °F 39% 29.94 in 10.0 mi NNW 10.4 mph 26.5 mph N/A   Clear
4:35 PM 42.8 °F 36.6 °F 23.0 °F 46% 29.95 in 10.0 mi NNW 11.5 mph 27.6 mph N/A   Clear
4:55 PM 41.0 °F 34.3 °F 23.0 °F 49% 29.97 in 10.0 mi North 11.5 mph 18.4 mph N/A   Clear
5:15 PM 39.2 °F 28.7 °F 21.2 °F 49% 29.97 in 10.0 mi NW 23.0 mph 29.9 mph N/A   Clear
5:35 PM 37.4 °F 28.2 °F 21.2 °F 52% 29.99 in 10.0 mi NNW 16.1 mph 26.5 mph N/A   Clear
5:55 PM 35.6 °F 26.6 °F 21.2 °F 56% 30.01 in 10.0 mi NNW 13.8 mph 25.3 mph N/A   Clear
6:15 PM 35.6 °F 27.1 °F 21.2 °F 56% 30.03 in 10.0 mi North 12.7 mph 20.7 mph N/A   Clear
6:35 PM 35.6 °F 27.1 °F 21.2 °F 56% 30.04 in 10.0 mi NNW 12.7 mph 23.0 mph N/A   Clear
6:55 PM 35.6 °F 29.2 °F 21.2 °F 56% 30.05 in 10.0 mi North 8.1 mph 21.9 mph N/A   Mostly Cloudy
7:15 PM 35.6 °F 28.6 °F 21.2 °F 56% 30.08 in 10.0 mi North 9.2 mph 18.4 mph N/A   Overcast
7:35 PM 35.6 °F 26.2 °F 19.4 °F 52% 30.09 in 10.0 mi NNW 15.0 mph 21.9 mph N/A   Overcast
7:55 PM 33.8 °F 24.3 °F 17.6 °F 52% 30.08 in 10.0 mi NNW 13.8 mph 23.0 mph N/A   Scattered Clouds
8:15 PM 33.8 °F 26.4 °F 15.8 °F 48% 30.10 in 10.0 mi NNW 9.2 mph 21.9 mph N/A   Clear
8:35 PM 33.8 °F 26.4 °F 17.6 °F 52% 30.10 in 10.0 mi NNW 9.2 mph 19.6 mph N/A   Clear
8:55 PM 30.2 °F 20.2 °F 17.6 °F 60% 30.11 in 10.0 mi NW 12.7 mph 17.3 mph N/A   Clear
9:15 PM 30.2 °F 21.9 °F 17.6 °F 60% 30.12 in 10.0 mi NW 9.2 mph - N/A   Clear
9:35 PM 30.2 °F 20.2 °F 17.6 °F 60% 30.12 in 10.0 mi NW 12.7 mph 19.6 mph N/A   Clear
9:55 PM 30.2 °F 21.9 °F 17.6 °F 60% 30.13 in 10.0 mi WNW 9.2 mph - N/A   Clear
10:15 PM 30.2 °F 21.3 °F 17.6 °F 60% 30.13 in 10.0 mi NW 10.4 mph - N/A   Clear
10:35 PM 30.2 °F 21.9 °F 17.6 °F 60% 30.13 in 10.0 mi NW 9.2 mph - N/A   Clear
10:55 PM 30.2 °F 21.3 °F 17.6 °F 60% 30.13 in 10.0 mi NW 10.4 mph - N/A   Clear
11:15 PM 30.2 °F 21.9 °F 17.6 °F 60% 30.13 in 10.0 mi NNW 9.2 mph - N/A   Clear
11:35 PM 30.2 °F 23.4 °F 17.6 °F 60% 30.13 in 10.0 mi NNW 6.9 mph - N/A   Clear
11:55 PM 28.4 °F 21.2 °F 17.6 °F 64% 30.13 in 10.0 mi NW 6.9 mph - N/A   Clear